Regional Weather Roundup
Issued by NWS

Home | Current Version | Previous Version | Graphics & Text | Print | Product List | Glossary On
Versions: 1 2 3 4 5 6 7 8 9 10 11 12 13 14 15 16 17 18 19 20 21 22 23 24 25 26 27 28 29 30 31 32 33 34 35 36 37 38 39 40 41 42 43 44 45 46 47 48 49 50
000
ASUS43 KDMX 240901
RWRIA

WEATHER ROUNDUP FOR IOWA
NATIONAL WEATHER SERVICE DES MOINES IA
400 AM CDT WED MAY 24 2017

NOTE: "FAIR" INDICATES FEW OR NO CLOUDS BELOW 12,000 FEET WITH NO
SIGNIFICANT WEATHER AND/OR OBSTRUCTIONS TO VISIBILITY.

* - THESE STATIONS ARE NOT NWS STATIONS...THUS NOT UNDER NWS
QUALITY CONTROL.  THEY ALSO DO NOT REPORT WEATHER SUCH
AS PRECIPITATION OR FOG.

IAZ001>003-012>014-020>022-031>034-043>046-241000-
   NORTHWEST IOWA

CITY           SKY/WX    TMP DP  RH WIND       PRES   REMARKS
CARROLL *      CLOUDY    52  50  93 N14       29.73S
CHEROKEE *     CLEAR     44  44 100 N6        29.77F
DENISON *      CLOUDY    50  46  87 N9        29.77S
LE MARS *      CLEAR     46  45  93 N5        29.81S
ORANGE CITY *  CLEAR     46  45  93 N9        29.79F
SHELDON *      CLEAR     43  43 100 N9          N/A
SIOUX CITY     CLEAR     45  45 100 NW7       29.81S
SPENCER        CLEAR     47  45  93 N9        29.77F
STORM LAKE *   CLEAR     46  45  93 N14       29.76F
$$

IAZ055>058-069>071-079>083-090>094-241000-
   SOUTHWEST IOWA

CITY           SKY/WX    TMP DP  RH WIND       PRES   REMARKS
ATLANTIC *     CLOUDY    50  48  93 NW10      29.73F
AUDUBON *      CLOUDY    50  46  87 NW8       29.74S
CLARINDA *     CLOUDY    52  48  87 NW9G15    29.76S
COUNCIL BLFS * CLOUDY    48  48 100 NW10G17   29.77S
CRESTON *      LGT RAIN  50  50 100 NW9G15    29.71F
HARLAN  *      CLOUDY    50  48  93 NW13      29.79S
LAMONI         MOCLDY    45  44  97 W7        29.70F
RED OAK *      CLOUDY    52  48  87 NW9G17    29.75S
SHENANDOAH *   CLOUDY    52  48  87 NW9       29.75F
$$

IAZ047>049-059>061-072>074-084-241000-
   CENTRAL IOWA

CITY           SKY/WX    TMP DP  RH WIND       PRES   REMARKS
AMES           LGT RAIN  51  50  96 N13       29.68F
ANKENY *       LGT RAIN  52  50  93 N10       29.69S
BOONE *        LGT RAIN  52  52 100 N14       29.69S
CHARITON *     CLOUDY    46  46 100 W6        29.68S
DES MOINES     RAIN      52  50  93 N9        29.68F FOG
GRINNELL*      CLOUDY    49  48  97 CALM      29.68S
KNOXVILLE *    CLOUDY    50  48  93 NW5       29.66F
MARSHALLTOWN   CLOUDY    52  51  97 N13       29.66S
NEWTON *       CLOUDY    52  50  93 N7        29.66F
PELLA *        CLOUDY    49  48  97 NW3       29.68F
PERRY *        LGT RAIN  51  50  95 N12       29.71S
$$

IAZ004>006-015-016-023>025-035-036-241000-
   NORTH CENTRAL IOWA

CITY           SKY/WX    TMP DP  RH WIND       PRES   REMARKS
ALGONA *       CLOUDY    50  48  93 N12G17    29.74F
CLARION *      CLOUDY    52  52 100 N15       29.72S
ESTHERVILLE    CLEAR     46  45  96 N10       29.77S
FORT DODGE *   CLOUDY    50  46  87 N8        29.73S
MASON CITY     MOCLDY    50  46  86 N16       29.73S
FOREST CITY *  MOCLDY    50  45  81 N9        29.73S
WEBSTER CITY * CLOUDY    52  50  93 N15       29.69S
IOWA FALLS *   RAIN      52  49  91 N12       29.70S
$$

IAZ007>011-017>019-026>030-037>042-050>054-066-241000-
   NORTHEAST IOWA

CITY           SKY/WX    TMP DP  RH WIND       PRES   REMARKS
CEDAR RAPIDS   CLOUDY    48  48 100 NW5       29.64F
CHARLES CITY * CLOUDY    52  48  87 NE14G20   29.70S
CLINTON *      FOG       47  47 100 NE3       29.64S VSB 1
DECORAH *      CLOUDY    50  48  93 N8        29.69R
DUBUQUE        CLOUDY    51  51 100 NE8       29.65S FOG
MONTICELLO *   CLOUDY    54  50  87 N6        29.64F
OELWEIN *      CLOUDY    52  52 100 N9        29.68R
WATERLOO       CLOUDY    52  49  89 N9        29.67S
$$

IAZ064-065-067-068-078-241000-
   EAST CENTRAL IOWA

CITY           SKY/WX    TMP DP  RH WIND       PRES   REMARKS
DAVENPORT      PTCLDY    48  46  93 NW5       29.63F
IOWA CITY      CLOUDY    50  47  89 CALM      29.66F
MT. PLEASANT * CLOUDY    49  48  97 W5        29.65S
MUSCATINE *    CLOUDY    50  48  93 NW6       29.64F
QUAD CITIES    MOCLDY    47  45  93 CALM      29.63F
$$

IAZ062-063-075>077-085>089-095>099-241000-
   SOUTHEAST IOWA

CITY           SKY/WX    TMP DP  RH WIND       PRES   REMARKS
BURLINGTON     PTCLDY    48  47  96 NW5       29.63F
FAIRFIELD *    PTCLDY    46  45  93 NW8       29.65S
FORT MADISON * CLEAR     48  46  93 CALM      29.65F
KEOKUK *       CLEAR     48  46  93 NW5       29.64S
OSKALOOSA *    MOCLDY    45  44  97 NW6       29.67S
OTTUMWA        CLEAR     44  44 100 NW7       29.66F
WASHINGTON *   CLOUDY    50  48  93 NW6       29.66S
$$

ABBREVIATIONS USED IN REMARKS
   TC - TEMPERATURES IN CELSIUS
  WCI - WIND CHILL INDEX
   HX - HEAT INDEX
  VSB - VISIBILITY
$$





USA.gov is the U.S. government's official web portal to all federal, state and local government web resources and services.